{"data":{"norad_id":63260,"intl_designator":"2025-052BC","name":"TRANSPORTER-13 OBJECT BC","alt_names":[],"object_type":"PAYLOAD","status":"ACTIVE","operator":null,"country":"TBD","launch_date":"2025-03-15","launch_site_code":"AFWTR","launch_vehicle":null,"mission":null,"orbit_class":"UNKNOWN","rcs_meters":null,"size_class":null,"mass_kg":null,"dimensions":null,"purposes":[],"wikipedia_slug":null,"has_3d_model":false,"image_url":null,"decayed_at":null,"tle_current":{"epoch":"2026-09-22T16:24:37.771200Z","epoch_age_seconds":120236,"freshness":"FRESH","line1":"1 63260U 25052BC  26265.68377050  .00000591  00000+0  59284-4 0  9994","line2":"2 63260  97.6690 154.9891 0002375  45.7593 314.3823 14.94906132 83197","mean_motion":14.94906132,"eccentricity":0.0002375,"inclination_deg":97.669,"raan_deg":154.9891,"arg_perigee_deg":45.7593,"mean_anomaly_deg":314.3823,"bstar":5.9284e-5,"rev_number":8319,"period_min":96.327118417359,"perigee_km":581.01093352775,"apogee_km":584.31731406155,"semimajor_km":6960.8011237947,"source":"CELESTRAK","updated_at":"2026-09-23T09:00:21.941501Z"}}}